Location: Le Petit-Vavre
(46.5081°N, 1.5239°E)
Time: 18:20:24
(UTC+00:00)

MetOp-A - Pass Details

Date: 03 March 2021
Orbit: 819 x 821 km, 98.5° (Epoch: 15 April)

Event Time Altitude Azimuth Distance (km) Brightness Sun altitude
Exits shadow 19:27:03 - 162° (SSE) 2,720 6.6 -18.7°
Reaches altitude 10° 19:27:50 10° 162° (SSE) 2,413 6.3 -18.8°
Maximum altitude 19:33:11 86° 74° (ENE) 830 4.0 -19.7°
Drops below altitude 10° 19:38:35 10° 347° (NNW) 2,430 6.9 -20.6°
Sets 19:40:56 0° 347° (NNW) 3,367 7.7 -21.0°
